Location: Lane
(33.5226°N, 79.8788°W)
Time: 03:42:43
(UTC+00:00)

Explorer 7 - Pass Details

Date: 09 October 2022
Orbit: 481 x 665 km, 50.3° (Epoch: 01 December)

Event Time Altitude Azimuth Distance (km) Brightness Sun altitude
Rises 16:32:08 0° 310° (NW) 3,003 10.3 49.2°
Drops below altitude 10° 16:33:44 - 321° (NW) 2,590 9.9 49.3°
Maximum altitude 16:37:37 10° 1° (N) 2,075 9.5 49.4°
Sets 16:43:02 0° 51° (NE) 2,944 10.3 49.6°
